Weather History for Beaufort, NC

Change the Weather History Date:

Tuesday, February 18, 2014

  Actual Average Record
Temperature  
Mean Temperature 52 °F -  
Max Temperature 66 °F 56 °F 72 °F (1984)
Min Temperature 37 °F 36 °F 12 °F (1958)
Degree Days  
Heating Degree Days 14    
Growing Degree Days 2 (Base 50)    
Moisture  
Dew Point 44 °F    
Average Humidity 82    
Maximum Humidity 100    
Minimum Humidity 43    
Precipitation  
Precipitation 0.00 in - - ()
Sea Level Pressure  
Sea Level Pressure 30.17 in    
Wind  
Wind Speed 7 mph (SSW)    
Max Wind Speed 16 mph    
Max Gust Speed -    
Visibility 7 miles    
Events      
Averages and records for this station are not official NWS values.
T = Trace of Precipitation, MM = Missing Value Source: NWS Daily Summary

Daily Weather History Graph

Daily Weather History Graph

Search for Another Location

Airport:

Trip Planner

Search our weather history database for the weather conditions in past years. The results will help you decide how hot, cold, wet, or windy it might be!

Date:

Astronomy

Feb. 18, 2014 Rise Set
Actual Time 6:49 AM EST 5:52 PM EST
Civil Twilight 6:23 AM EST 6:18 PM EST
Nautical Twilight 5:53 AM EST 6:47 PM EST
Astronomical Twilight 5:24 AM EST 7:17 PM EST
Moon 9:32 PM EST (2/18) 8:30 AM EST (2/18)
Length of Visible Light 11h 54m
Length of Day
11h 03m
Waning Gibbous, 87% of the Moon is Illuminated
Feb 18
Waning Gibbous
Feb 22
Last Quarter
Mar 1
New
Mar 8
First Quarter
Mar 16
Full

Hourly Weather History & Observations

Time (EST) Temp. Windchill Dew Point Humidity Pressure Visibility Wind Dir Wind Speed Gust Speed Precip Events Conditions
12:35 AM 37.9 °F 32.1 °F 34.0 °F 86% 30.22 in 10.0 mi NE 8.1 mph - N/A   Scattered Clouds
12:58 AM 37.9 °F 33.5 °F 34.0 °F 86% 30.22 in 10.0 mi NE 5.8 mph - N/A   Clear
1:24 AM 39.0 °F 35.7 °F 35.1 °F 86% 30.20 in 10.0 mi NE 4.6 mph - N/A   Overcast
1:34 AM 39.9 °F 36.7 °F 36.0 °F 86% 30.19 in 10.0 mi ENE 4.6 mph - N/A   Overcast
1:58 AM 41.0 °F 36.4 °F 36.0 °F 82% 30.17 in 10.0 mi East 6.9 mph - N/A   Overcast
2:58 AM 43.0 °F 41.3 °F 39.9 °F 89% 30.14 in 10.0 mi East 3.5 mph - N/A   Overcast
3:58 AM 55.9 °F - 53.1 °F 90% 30.13 in 8.0 mi SSE 8.1 mph - 0.00 in   Overcast
4:58 AM 57.9 °F - 53.1 °F 84% 30.12 in 10.0 mi South 10.4 mph - N/A   Overcast
5:58 AM 55.0 °F - 50.0 °F 83% 30.12 in 10.0 mi SSW 10.4 mph - N/A   Partly Cloudy
6:58 AM 54.0 °F - 50.0 °F 86% 30.12 in 8.0 mi SSW 15.0 mph - N/A   Clear
7:58 AM 55.0 °F - 52.0 °F 89% 30.15 in 7.0 mi WSW 9.2 mph - N/A   Overcast
8:58 AM 55.9 °F - 48.9 °F 77% 30.19 in 10.0 mi NW 16.1 mph - N/A   Overcast
9:58 AM 52.0 °F - 45.0 °F 77% 30.21 in 9.0 mi NW 12.7 mph - N/A   Mostly Cloudy
10:58 AM 57.0 °F - 46.0 °F 67% 30.21 in 9.0 mi NW 12.7 mph - N/A   Clear
11:58 AM 59.0 °F - 46.9 °F 64% 30.19 in 9.0 mi NW 13.8 mph - N/A   Clear
12:58 PM 62.1 °F - 46.0 °F 56% 30.17 in 10.0 mi NW 9.2 mph - N/A   Clear
1:58 PM 64.9 °F - 44.1 °F 47% 30.15 in 10.0 mi WNW 9.2 mph - N/A   Clear
2:58 PM 66.0 °F - 43.0 °F 43% 30.13 in 10.0 mi WSW 4.6 mph - N/A   Clear
3:58 PM 62.1 °F - 46.0 °F 56% 30.14 in 10.0 mi SSW 6.9 mph - N/A   Clear
4:58 PM 55.9 °F - 46.0 °F 69% 30.15 in 8.0 mi South 4.6 mph - N/A   Clear
5:58 PM 52.0 °F - 44.1 °F 74% 30.17 in 7.0 mi SSE 3.5 mph - N/A   Clear
6:58 PM 48.9 °F - 43.0 °F 80% 30.19 in 8.0 mi South 4.6 mph - N/A   Clear
7:58 PM 46.9 °F - 44.1 °F 90% 30.19 in 7.0 mi Calm Calm - N/A   Clear
8:58 PM 46.9 °F - 45.0 °F 93% 30.19 in 7.0 mi Calm Calm - N/A   Clear
9:58 PM 48.9 °F - 46.0 °F 90% 30.18 in 8.0 mi South 5.8 mph - N/A   Clear
10:58 PM 46.0 °F - 45.0 °F 96% 30.17 in 4.0 mi Calm Calm - N/A   Clear
11:12 PM 45.0 °F - 44.1 °F 97% 30.16 in 1.8 mi Calm Calm - N/A   Clear
11:14 PM 45.0 °F - 44.1 °F 97% 30.16 in 0.8 mi Calm Calm - N/A   Clear
11:23 PM 45.0 °F - 44.1 °F 97% 30.16 in 1.5 mi Calm Calm - N/A   Clear
11:25 PM 45.0 °F - 43.0 °F 93% 30.16 in 3.0 mi Calm Calm - N/A   Clear
11:47 PM 44.1 °F - 43.0 °F 96% 30.16 in 1.8 mi Calm Calm - N/A   Clear
11:56 PM 44.6 °F - 42.8 °F 93% 30.15 in 0.8 mi Calm Calm - N/A   Clear
11:58 PM 43.0 °F - 43.0 °F 100% 30.16 in 1.0 mi Calm Calm - N/A   Clear